Regional Weather Roundup
Issued by NWS Sioux Falls, SD

Home | Current Version | Previous Version | Graphics & Text | Print | Product List | Glossary Off
Versions: 1 2 3 4 5 6 7 8 9 10 11 12 13 14 15 16 17 18 19 20 21 22 23 24 25 26 27 28 29 30 31 32 33 34 35 36 37 38 39 40 41 42 43 44 45 46 47 48 49 50

000
ASUS43 KFSD 250402
RWRFSD

WEATHER ROUNDUP FOR SE SOUTH DAKOTA/SW MINNESOTA/NW IOWA
NATIONAL WEATHER SERVICE SIOUX FALLS SD
1100 PM CDT TUE MAY 24 2016

NOTE: "FAIR" INDICATES FEW OR NO CLOUDS BELOW 12,000 FEET WITH NO
SIGNIFICANT WEATHER AND OR OBSTRUCTIONS TO VISIBILITY.


SDZ038>040-050-052>070-250500-
SOUTHEAST SOUTH DAKOTA

CITY           SKY/WX    TMP DP  RH WIND       PRES   REMARKS
BROOKINGS      CLOUDY    68  50  52 SE8       29.85S
CHAMBERLAIN    NOT AVBL
HURON          CLOUDY    64  54  69 E6        29.80S
MADISON        FAIR      70  55  60 SE9       29.86S
MITCHELL       CLOUDY    71  59  65 SE9       29.82R
SIOUX FALLS    CLOUDY    72  61  68 S8        29.85R
WINNER         MOCLDY    70  55  59 SE14      29.77S
YANKTON        PTCLDY    72  61  68 SE8       29.81F
$$

MNZ071-072-080-081-089-090-097-098-250500-
SOUTHWEST MINNESOTA

CITY           SKY/WX    TMP DP  RH WIND       PRES   REMARKS
FAIRMONT       CLEAR     70  46  43 S8        29.89F
JACKSON        CLEAR     70  59  68 S8        29.90F
LUVERNE        CLOUDY    66  57  72 S7        29.87S
MARSHALL       NOT AVBL
MONTEVIDEO     PTCLDY    68  54  60 S9        29.88R
PIPESTONE      CLOUDY    72  54  53 S7        29.87S
REDWOOD FALLS  CLEAR     70  50  49 SE6       29.86S
WINDOM         CLEAR     70  59  68 CALM      29.89S
WORTHINGTON    CLEAR     71  62  73 S13       29.89S
$$

IAZ001>003-012>014-020>022-031-032-NEZ013-014-SDZ071-250500-
NORTHWEST IOWA

CITY           SKY/WX    TMP DP  RH WIND       PRES   REMARKS
DENISON        CLOUDY    68  61  77 SE7       29.86S
ESTHERVILLE    CLEAR     68  60  75 S9        29.89F
SIOUX CITY     CLEAR     69  64  84 SE6       29.84F
SPENCER        CLEAR     68  61  78 SE8       29.89S
STORM LAKE     CLEAR     68  63  83 SE8       29.89F
$$

ABBREVIATIONS USED IN REMARKS
   TC - TEMPERATURE IN CELSIUS
  WCI - WIND CHILL INDEX
   HX - HEAT INDEX
  VSB - VISIBILITY




USA.gov is the U.S. government's official web portal to all federal, state and local government web resources and services.